Regional Weather Roundup
Issued by NWS

Home | Current Version | Previous Version | Graphics & Text | Print | Product List | Glossary On
Versions: 1 2 3 4 5 6 7 8 9 10 11 12 13 14 15 16 17 18 19 20 21 22 23 24 25 26 27 28 29 30 31 32 33 34 35 36 37 38 39 40 41 42 43 44 45 46 47 48 49 50
000
ASUS45 KCYS 200210
RWRWY

WYOMING REGIONAL WEATHER ROUNDUP
NATIONAL WEATHER SERVICE CHEYENNE WY
800 PM MDT TUE AUG 19 2014

NOTE:  "FAIR" INDICATES FEW OR NO CLOUDS BELOW 12,000 FEET
WITH NO SIGNIFICANT WEATHER AND/OR OBSTRUCTIONS TO VISIBILITY.

WYZ001-200300-
YELLOWSTONE NATIONAL PARK

CITY           SKY/WX    TMP DP  RH WIND       PRES   REMARKS
LK YELLOWSTONE   N/A     56  43  61 CALM      30.08S
W YELLOWSTONE  NOT AVBL

$$
WYZ002>013-054>058-071-098>099-200300-
NORTHERN WYOMING

CITY           SKY/WX    TMP DP  RH WIND       PRES   REMARKS
JACKSON        CLEAR     57  48  72 S10       30.03R
CODY           CLOUDY    72  45  37 N7        29.84R
GREYBULL       CLOUDY    82  41  23 NW12      29.74R
WORLAND        CLOUDY    80  40  23 SE21G29   29.77R
SHERIDAN       CLOUDY    76  48  37 NW7       29.74R
BUFFALO        CLOUDY    75  47  36 SW8       29.82S
GILLETTE       CLOUDY    77  39  25 N3        29.76F
HULETT         FAIR      77  54  44 MISG      29.78
NEWCASTLE      MOCLDY    81  39  22 NW3       29.78

$$
WYZ014>020-022>026-101>103-200300-
CENTRAL WYOMING

CITY           SKY/WX    TMP DP  RH WIND       PRES   REMARKS
BIG PINEY      CLOUDY    60  46  59 N14       30.06R
PINEDALE       CLOUDY    55  45  67 W7        30.06R
DUBOIS         CLOUDY    54  43  66 N7        30.04F
LANDER         CLOUDY    71  45  39 E5        29.89R
RIVERTON       CLOUDY    73  42  32 S10       29.89R
CASPER         CLOUDY    72  43  35 SW15      29.88S
DOUGLAS        CLOUDY    76  41  28 SE6       29.86S

$$
WYZ021-027>030-104>119-200300-
SOUTHERN WYOMING

CITY           SKY/WX    TMP DP  RH WIND       PRES   REMARKS
EVANSTON       MOCLDY    60  50  69 N5        30.05R
KEMMERER       CLOUDY    61  43  51 CALM      30.05S
FORT BRIDGER   FAIR      60  51  72 W5        30.06S
ROCK SPRINGS   CLOUDY    58  51  78 SW10      30.01S
DIXON          FAIR      65  53  64 SW3       30.05R
RAWLINS        CLOUDY    63  47  55 SW7       30.02F
SARATOGA       FAIR      59  48  67 MISG      30.05S
LARAMIE        CLOUDY    66  43  43 N5        30.04S
CHEYENNE       PTCLDY    69  47  45 CALM      29.97R
TORRINGTON     CLOUDY    78  47  33 E7        29.81R
PINE BLUFFS    FAIR      70  50  49 N5        29.90R

$$


USA.gov is the U.S. government's official web portal to all federal, state and local government web resources and services.